TimeCDT,TemperatureF,Dew PointF,Humidity,Sea Level PressureIn,VisibilityMPH,Wind Direction,Wind SpeedMPH,Gust SpeedMPH,PrecipitationIn,Events,Conditions,WindDirDegrees,DateUTC
12:58 AM,67.8,66.7,96,29.99,10.0,SSE,4.6,-,N/A,,Clear,160,2013-08-02 05:58:00
1:58 AM,66.7,65.7,96,29.99,10.0,SSE,3.5,-,N/A,,Clear,150,2013-08-02 06:58:00
2:58 AM,66.0,64.9,96,29.98,10.0,SSE,4.6,-,N/A,,Clear,160,2013-08-02 07:58:00
3:58 AM,66.2,65.5,98,29.98,10.0,SSE,5.8,-,N/A,,Partly Cloudy,150,2013-08-02 08:58:00
4:58 AM,65.3,65.3,100,29.98,10.0,SSE,4.6,-,N/A,,Partly Cloudy,160,2013-08-02 09:58:00
5:58 AM,66.0,66.0,100,29.98,10.0,South,3.5,-,N/A,,Partly Cloudy,180,2013-08-02 10:58:00
6:58 AM,69.1,66.6,92,29.98,7.0,SSW,4.6,-,N/A,,Partly Cloudy,200,2013-08-02 11:58:00
7:58 AM,71.6,66.0,82,29.98,6.0,Variable,5.8,-,N/A,,Haze,0,2013-08-02 12:58:00
8:58 AM,72.7,66.6,81,29.98,10.0,Variable,5.8,-,N/A,,Scattered Clouds,0,2013-08-02 13:58:00
9:58 AM,72.7,65.8,79,29.99,10.0,South,4.6,-,N/A,,Clear,180,2013-08-02 14:58:00
10:38 AM,71.6,66.2,83,30.00,10.0,South,5.8,-,N/A,,Light Drizzle,170,2013-08-02 15:38:00
10:58 AM,71.4,66.4,84,29.99,10.0,South,4.6,-,0.00,,Light Drizzle,190,2013-08-02 15:58:00
11:24 AM,71.6,68.0,88,30.01,10.0,Variable,5.8,-,N/A,,Scattered Clouds,0,2013-08-02 16:24:00
11:58 AM,72.5,67.1,83,29.98,10.0,SSE,5.8,-,0.01,,Mostly Cloudy,160,2013-08-02 16:58:00
12:58 PM,74.5,67.3,78,29.96,10.0,South,9.2,-,N/A,,Mostly Cloudy,170,2013-08-02 17:58:00
1:28 PM,75.2,68.0,78,29.99,10.0,Variable,5.8,-,N/A,,Light Drizzle,0,2013-08-02 18:28:00
1:58 PM,73.8,70.0,88,29.96,10.0,SSE,6.9,-,0.02,Rain,Light Rain,160,2013-08-02 18:58:00
2:11 PM,73.4,71.6,94,29.98,10.0,South,4.6,-,N/A,,Mostly Cloudy,170,2013-08-02 19:11:00
2:16 PM,73.4,69.8,88,29.98,9.0,SSE,8.1,-,N/A,Rain,Light Rain,160,2013-08-02 19:16:00
2:30 PM,73.4,69.8,88,29.97,10.0,South,8.1,-,N/A,,Mostly Cloudy,170,2013-08-02 19:30:00
2:54 PM,71.6,69.8,94,29.97,10.0,South,4.6,-,N/A,,Light Drizzle,190,2013-08-02 19:54:00
2:58 PM,72.3,69.8,92,29.96,5.0,SSE,6.9,-,0.01,Rain,Heavy Rain,160,2013-08-02 19:58:00
3:13 PM,71.6,71.6,100,29.96,10.0,SSE,5.8,-,N/A,,Overcast,150,2013-08-02 20:13:00
3:58 PM,74.1,72.3,94,29.94,10.0,SSE,8.1,-,0.05,,Scattered Clouds,150,2013-08-02 20:58:00
4:58 PM,75.7,73.6,93,29.94,10.0,SSE,3.5,-,N/A,,Mostly Cloudy,160,2013-08-02 21:58:00
5:02 PM,75.2,73.4,94,29.94,9.0,SSE,6.9,-,N/A,Rain,Light Rain,150,2013-08-02 22:02:00
5:50 PM,75.2,73.4,94,29.94,10.0,SSE,8.1,-,N/A,,Scattered Clouds,150,2013-08-02 22:50:00
5:52 PM,75.2,73.4,94,29.94,9.0,SE,8.1,-,N/A,Rain,Light Rain,140,2013-08-02 22:52:00
5:58 PM,75.2,72.9,92,29.91,7.0,SSE,8.1,-,0.03,Rain,Light Rain,150,2013-08-02 22:58:00
6:21 PM,73.4,73.4,100,29.93,10.0,SSE,6.9,-,N/A,,Mostly Cloudy,160,2013-08-02 23:21:00
6:58 PM,75.6,73.8,94,29.92,10.0,SSE,5.8,-,0.01,,Mostly Cloudy,160,2013-08-02 23:58:00
7:58 PM,74.5,73.6,97,29.92,10.0,SE,6.9,-,N/A,,Scattered Clouds,140,2013-08-03 00:58:00
8:58 PM,73.2,73.2,100,29.92,10.0,SE,8.1,-,N/A,,Scattered Clouds,130,2013-08-03 01:58:00
9:13 PM,73.4,73.4,100,29.94,10.0,SSE,9.2,-,N/A,Thunderstorm,Thunderstorm,150,2013-08-03 02:13:00
9:28 PM,73.4,73.4,100,29.96,10.0,ESE,10.4,-,N/A,Thunderstorm,Partly Cloudy,110,2013-08-03 02:28:00
9:30 PM,73.4,73.4,100,29.95,10.0,ESE,10.4,-,N/A,Thunderstorm,Thunderstorm,120,2013-08-03 02:30:00
9:54 PM,73.4,73.4,100,29.98,5.0,North,13.8,-,N/A,Rain-Thunderstorm,Light Thunderstorms and Rain,360,2013-08-03 02:54:00
9:55 PM,73.4,73.4,100,29.98,3.0,NNE,15.0,18.4,N/A,Rain-Thunderstorm,Heavy Thunderstorms and Rain,20,2013-08-03 02:55:00
9:58 PM,73.4,73.4,100,29.96,2.5,NNE,18.4,29.9,0.10,Rain-Thunderstorm,Heavy Thunderstorms and Rain,30,2013-08-03 02:58:00
10:00 PM,73.4,73.4,100,29.97,1.8,ENE,15.0,29.9,N/A,Rain-Thunderstorm,Heavy Thunderstorms and Rain,60,2013-08-03 03:00:00
10:05 PM,73.4,71.6,94,29.96,2.5,ESE,27.6,41.4,N/A,Rain-Thunderstorm,Light Thunderstorms and Rain,110,2013-08-03 03:05:00
10:07 PM,73.4,69.8,88,29.96,4.0,ESE,15.0,41.4,N/A,Rain-Thunderstorm,Light Thunderstorms and Rain,120,2013-08-03 03:07:00
10:08 PM,73.4,68.0,83,29.96,5.0,SE,11.5,41.4,N/A,Rain-Thunderstorm,Light Thunderstorms and Rain,140,2013-08-03 03:08:00
10:28 PM,75.2,71.6,89,29.96,10.0,SSE,8.1,-,N/A,Thunderstorm,Thunderstorm,150,2013-08-03 03:28:00
10:32 PM,75.2,71.6,89,29.96,10.0,SSE,8.1,-,N/A,Thunderstorm,Mostly Cloudy,150,2013-08-03 03:32:00
10:35 PM,75.2,71.6,89,29.96,10.0,SSE,8.1,-,N/A,Thunderstorm,Light Drizzle,160,2013-08-03 03:35:00
10:58 PM,74.3,73.2,96,29.93,9.0,South,8.1,-,0.15,Rain-Thunderstorm,Light Rain,180,2013-08-03 03:58:00
11:01 PM,73.4,73.4,100,29.96,7.0,South,4.6,-,N/A,Rain-Thunderstorm,Thunderstorms and Rain,190,2013-08-03 04:01:00
11:06 PM,73.4,73.4,100,29.99,2.5,WNW,4.6,-,N/A,Rain-Thunderstorm,Heavy Thunderstorms and Rain,300,2013-08-03 04:06:00
11:11 PM,73.4,73.4,100,30.00,1.0,NNW,13.8,-,N/A,Rain-Thunderstorm,Heavy Thunderstorms and Rain,330,2013-08-03 04:11:00
11:16 PM,73.4,73.4,100,30.00,0.8,Variable,3.5,-,N/A,Rain-Thunderstorm,Heavy Thunderstorms and Rain,0,2013-08-03 04:16:00
11:21 PM,73.4,73.4,100,30.01,0.8,West,4.6,-,N/A,Rain-Thunderstorm,Heavy Thunderstorms and Rain,270,2013-08-03 04:21:00
11:31 PM,73.4,73.4,100,29.99,0.5,Variable,3.5,-,N/A,Fog-Rain-Thunderstorm,Heavy Thunderstorms and Rain,0,2013-08-03 04:31:00
11:36 PM,73.4,73.4,100,29.97,0.8,ESE,16.1,-,N/A,Rain-Thunderstorm,Heavy Thunderstorms and Rain,110,2013-08-03 04:36:00
11:41 PM,73.4,73.4,100,29.98,1.2,ESE,10.4,-,N/A,Rain-Thunderstorm,Light Thunderstorms and Rain,120,2013-08-03 04:41:00
11:46 PM,73.4,73.4,100,29.98,5.0,East,9.2,-,N/A,Rain-Thunderstorm,Light Thunderstorms and Rain,90,2013-08-03 04:46:00
11:49 PM,73.4,73.4,100,29.98,9.0,East,9.2,-,N/A,Thunderstorm,Thunderstorm,100,2013-08-03 04:49:00
11:51 PM,71.6,71.6,100,29.98,9.0,SE,9.2,-,N/A,Rain-Thunderstorm,Light Thunderstorms and Rain,130,2013-08-03 04:51:00
11:56 PM,71.6,71.6,100,29.97,9.0,SSE,6.9,-,N/A,Rain-Thunderstorm,Light Thunderstorms and Rain,150,2013-08-03 04:56:00
11:58 PM,72.1,72.1,100,29.96,8.0,SSE,6.9,-,1.19,Rain-Thunderstorm,Light Thunderstorms and Rain,150,2013-08-03 04:58:00